Location: Nairn
(57.5833°N, 3.8667°W)
Time: 23:26:05
(UTC+00:00)

Tiros 1 - Pass Details

Date: 29 September 2022
Orbit: 629 x 662 km, 48.4° (Epoch: 09 December)

Event Time Altitude Azimuth Distance (km) Brightness Sun altitude
Exits shadow 04:56:35 14° 238° (WSW) 1,785 8.8 -11.2°
Maximum altitude 04:59:28 24° 193° (SSW) 1,330 8.5 -10.9°
Drops below altitude 10° 05:03:15 10° 139° (SE) 2,041 10.1 -10.4°
Sets 05:05:54 0° 126° (SE) 2,943 11.2 -10.0°
